Weather History for KJBR - October, 2013

Change the Weather History Date:

Tuesday, October 15, 2013

  Actual Average Record
Temperature  
Mean Temperature 68 °F 62 °F  
Max Temperature 70 °F 73 °F 89 °F (1963)
Min Temperature 65 °F 50 °F 35 °F (1939)
Degree Days  
Heating Degree Days 0 5  
Month to date heating degree days 10 55  
Since 1 July heating degree days 10 73  
Cooling Degree Days 3 1  
Month to date cooling degree days 66 37  
Year to date cooling degree days 2034 1808  
Growing Degree Days 17 (Base 50)    
Moisture  
Dew Point 66 °F    
Average Humidity 94    
Maximum Humidity 100    
Minimum Humidity 87    
Precipitation  
Precipitation 1.20 in 0.13 in 2.25 in (1989)
Month to date precipitation 3.21 2.00  
Year to date precipitation 41.94 36.17  
Snow  
Snow 0.00 in 0.00 in 0.00 in (2002)
Month to date snowfall 0.0 0.0  
Since 1 July snowfall 0.0 0.0  
Since 1 September snowfall 0.0 0.0  
Snow Depth 0.00 in    
Sea Level Pressure  
Sea Level Pressure 29.97 in    
Wind  
Wind Speed 7 mph (SSE)    
Max Wind Speed 16 mph    
Max Gust Speed 21 mph    
Visibility 7 miles    
Events Rain    
T = Trace of Precipitation, MM = Missing Value Source: NWS Daily Summary

Daily Weather History Graph

Daily Weather History Graph

Search for Another Location

Airport or City:

Trip Planner

Search our weather history database for the weather conditions in past years. The results will help you decide how hot, cold, wet, or windy it might be!

Date:

Astronomy

Oct. 15, 2013 Rise Set
Actual Time 7:09 AM CDT 6:26 PM CDT
Civil Twilight 6:43 AM CDT 6:52 PM CDT
Nautical Twilight 6:13 AM CDT 7:21 PM CDT
Astronomical Twilight 5:44 AM CDT 7:51 PM CDT
Moon 4:26 PM CDT (10/15) 3:38 AM CDT (10/15)
Length of Visible Light 12h 08m
Length of Day
11h 17m
Waxing Gibbous, 88% of the Moon is Illuminated
Oct 15
Waxing Gibbous
Oct 18
Full
Oct 26
Last Quarter
Nov 3
New
Nov 9
First Quarter

Hourly Weather History & Observations

Time (CDT) Temp. Dew Point Humidity Pressure Visibility Wind Dir Wind Speed Gust Speed Precip Events Conditions
12:53 AM - - N/A% 30.03 in 10.0 mi ENE 3.5 mph - 0.00 in   Mostly Cloudy
1:53 AM - - N/A% 30.02 in 8.0 mi NE 4.6 mph - N/A   Mostly Cloudy
2:53 AM - - N/A% 30.01 in 9.0 mi Calm Calm - N/A   Partly Cloudy
3:53 AM - - N/A% 29.99 in 8.0 mi East 3.5 mph - N/A   Mostly Cloudy
4:53 AM - - N/A% 29.99 in 9.0 mi Calm Calm - N/A   Overcast
5:53 AM - - N/A% 29.98 in 9.0 mi Calm Calm - N/A   Overcast
6:53 AM 66.9 °F 63.0 °F 87% 29.98 in 10.0 mi SSE 5.8 mph - N/A   Overcast
7:53 AM 66.9 °F 64.0 °F 90% 29.99 in 9.0 mi South 11.5 mph - 0.00 in Rain Light Rain
8:53 AM 66.9 °F 64.0 °F 90% 29.99 in 10.0 mi SSE 9.2 mph - 0.01 in   Overcast
9:53 AM 68.0 °F 64.9 °F 90% 29.99 in 10.0 mi South 10.4 mph - N/A   Overcast
10:53 AM 68.0 °F 66.0 °F 93% 30.00 in 6.0 mi South 11.5 mph - 0.07 in Rain Light Rain
11:10 AM 68.0 °F 66.2 °F 94% 30.00 in 1.8 mi South 11.5 mph - 0.10 in Rain Heavy Rain
11:21 AM 66.2 °F 66.2 °F 100% 29.99 in 3.0 mi South 10.4 mph - 0.16 in Rain Light Rain
11:48 AM 66.2 °F 66.2 °F 100% 30.00 in 1.8 mi South 6.9 mph - 0.27 in Rain Rain
11:53 AM 66.9 °F 66.0 °F 97% 30.00 in 1.5 mi South 8.1 mph - 0.30 in Rain Rain
12:04 PM 66.2 °F 66.2 °F 100% 29.99 in 2.5 mi SSE 6.9 mph - 0.06 in Rain Rain
12:12 PM 66.2 °F 66.2 °F 100% 29.99 in 4.0 mi South 8.1 mph - 0.09 in Rain Rain
12:53 PM 66.9 °F 66.0 °F 97% 29.98 in 4.0 mi SSE 3.5 mph - 0.20 in Rain Rain
1:18 PM 66.2 °F 66.2 °F 100% 29.97 in 1.8 mi SSE 8.1 mph - 0.17 in Rain Heavy Rain
1:27 PM 66.2 °F 66.2 °F 100% 29.96 in 1.0 mi SSE 10.4 mph - 0.38 in Rain Heavy Rain
1:41 PM 68.0 °F 66.2 °F 94% 29.95 in 3.0 mi SE 8.1 mph - 0.50 in Rain Light Rain
1:53 PM 68.0 °F 66.0 °F 93% 29.95 in 8.0 mi SE 6.9 mph - 0.50 in Rain Light Rain
2:09 PM 68.0 °F 66.2 °F 94% 29.95 in 9.0 mi SE 9.2 mph - 0.01 in Rain Light Rain
2:23 PM 68.0 °F 66.2 °F 94% 29.94 in 8.0 mi SE 8.1 mph - 0.01 in Rain Light Rain
2:46 PM 68.0 °F 66.2 °F 94% 29.94 in 8.0 mi SSE 10.4 mph - 0.02 in Rain Light Rain
2:53 PM 68.0 °F 66.9 °F 96% 29.93 in 8.0 mi SSE 10.4 mph - 0.02 in Rain Light Rain
3:05 PM 68.0 °F 66.2 °F 94% 29.93 in 8.0 mi SSE 12.7 mph - 0.01 in Rain Light Rain
3:49 PM 68.0 °F 66.2 °F 94% 29.90 in 10.0 mi SSE 16.1 mph 20.7 mph 0.02 in Rain Light Rain
3:53 PM 68.0 °F 66.9 °F 96% 29.90 in 10.0 mi SSE 12.7 mph 20.7 mph 0.02 in Rain Light Rain
4:18 PM 68.0 °F 66.2 °F 94% 29.92 in 10.0 mi SSW 6.9 mph - 0.00 in Rain Light Rain
4:33 PM 68.0 °F 66.2 °F 94% 29.92 in 10.0 mi South 8.1 mph - 0.01 in Rain Light Rain
4:53 PM 68.0 °F 66.0 °F 93% 29.95 in 10.0 mi SW 6.9 mph - 0.01 in Rain Light Rain
5:53 PM 68.0 °F 66.9 °F 96% 29.92 in 7.0 mi SSE 5.8 mph - 0.01 in Rain Light Rain
6:17 PM 68.0 °F 66.2 °F 94% 29.93 in 7.0 mi SSE 4.6 mph - 0.01 in   Overcast
6:53 PM 68.0 °F 66.9 °F 96% 29.93 in 7.0 mi South 6.9 mph - 0.01 in   Overcast
7:12 PM 68.0 °F 66.2 °F 94% 29.95 in 5.0 mi WSW 3.5 mph - 0.00 in Rain Light Rain
7:29 PM 68.0 °F 66.2 °F 94% 29.96 in 6.0 mi Calm Calm - 0.00 in Rain Light Rain
7:53 PM 68.0 °F 66.9 °F 96% 29.96 in 6.0 mi South 4.6 mph - 0.00 in   Overcast
8:32 PM 68.0 °F 66.2 °F 94% 29.97 in 7.0 mi SSW 5.8 mph - 0.00 in   Overcast
8:53 PM 68.0 °F 66.9 °F 96% 29.98 in 9.0 mi SW 6.9 mph - 0.00 in Rain Light Rain
9:53 PM 68.0 °F 66.9 °F 96% 29.99 in 8.0 mi SSW 5.8 mph - 0.02 in Rain Light Rain
10:53 PM 66.9 °F 66.9 °F 100% 29.98 in 10.0 mi SW 8.1 mph - 0.00 in   Overcast
11:53 PM 66.9 °F 66.0 °F 97% 29.96 in 10.0 mi West 9.2 mph - 0.01 in Rain Light Rain